www.pogodaiklimat.ru

Погода и климат >> Архив погоды >> Пакистан >> Dera Ismail Khan


ПОГОДА в Dera Ismail Khan

  • Прогноз погоды в Dera Ismail Khan
  • Монитор погоды в Dera Ismail Khan
  • Климат города

АРХИВ ПОГОДЫ в Dera Ismail Khan

Время (UTC), дата Ветер
(напр.,м/с)
 
Видим.   Явления Облачность Т
(С)
Тd
(С)
f
(%)
Тe
(С)
Тes
(С)
Комфортность P
(гПа)
Po
(гПа)
Тmin
(С)
Tmax
(С)
R
(мм)
R24
(мм)
S
(см)
03 9.07 В 1 10 км ясно +33.0 +26.1 67 +49 +57 опасность
перегрева
993.6 974.8 +30.1
06 9.07 ЮВ 1 10 км ясно +38.0 +26.4 52 +54 +79 опасность
перегрева
994.5 976.1
09 9.07 штиль 0 10 км ясно +42.5 +23.7 35 +53 +77 опасность
перегрева
992.8 1000.0
12 9.07 штиль 0 10 км ясно +44.0 +24.8 34 +55 +62 опасность
перегрева
991.0 1008.3 +46.1
15 9.07 штиль 0 10 км ясно +39.0 +26.8 50 +55 +55 опасность
перегрева
991.0 1000.0
18 9.07 ЮЗ 1 4000 м ясно +35.0 +26.8 63 +53 +53 опасность
перегрева
992.7 974.0
21 9.07 штиль 0 4000 м ясно +32.0 +26.5 73 +49 +49 опасность
перегрева
992.6 969.8
00 10.07 штиль 0 4000 м ясно +31.0 +26.9 79 +48 +48 опасность
перегрева
993.9 975.0
03 10.07 штиль 0 4000 м ясно +32.0 +25.0 67 +46 +55 опасность
перегрева
995.8 976.9 +29.0
06 10.07 СВ 1 10 км ясно +37.5 +25.8 51 +52 +77 опасность
перегрева
995.5 977.0
09 10.07 СВ 1 10 км ясно +40.0 +24.8 42 +52 +73 опасность
перегрева
993.8 975.5
12 10.07 штиль 0 10 км ясно +44.0 +23.0 31 +53 +59 опасность
перегрева
990.9 972.8 +47.1
15 10.07 штиль 0 4000 м ясно +40.0 +26.4 47 +56 +56 опасность
перегрева
990.6 972.3
18 10.07 штиль 0 4000 м ясно +35.0 +26.8 63 +53 +53 опасность
перегрева
992.6 973.9
21 10.07 штиль 0 4000 м ясно +32.0 +26.5 73 +49 +49 опасность
перегрева
992.6 973.8
00 11.07 штиль 0 4000 м ясно +31.0 +26.9 79 +48 +48 опасность
перегрева
992.6 973.7
03 11.07 СВ 1 4000 м ясно +32.0 +27.9 79 +52 +60 опасность
перегрева
993.7 974.8 +29.5
06 11.07 СВ 1 10 км ясно +38.0 +27.2 54 +56 +79 опасность
перегрева
994.1 975.7
09 11.07 ЮВ 1 10 км ясно +42.0 +23.9 36 +52 +75 опасность
перегрева
992.6 1000.0
12 11.07 Ю 1 10 км ясно +43.0 +24.3 35 +54 +60 опасность
перегрева
989.3 1008.5 +43.5
15 11.07 ЮВ 1 4000 м 4/4 300 м
[Sc]
+37.5 +25.0 49 +51 +51 опасность
перегрева
989.3 1000.0
18 11.07 штиль 0 4000 м ясно +35.0 +25.3 57 +49 +49 опасность
перегрева
992.4 973.7
21 11.07 СВ 1 4000 м ясно +31.0 +25.4 72 +45 +45 опасность
перегрева
992.0 968.9
00 12.07 СВ 1 4000 м 4/0 300 м
[]
+30.0 +25.8 78 +45 +45 опасность
перегрева
992.3 973.4
03 12.07 СВ 1 4000 м ясно +31.0 +26.1 75 +46 +54 опасность
перегрева
993.9 975.0 +27.1
06 12.07 СВ 1 10 км ясно +35.5 +26.6 60 +52 +75 опасность
перегрева
994.6 975.9
09 12.07 СЗ 1 10 км ясно +39.0 +26.8 50 +55 +78 опасность
перегрева
991.8 1000.0
12 12.07 штиль 0 10 км ясно +41.0 +26.0 43 +55 +62 опасность
перегрева
990.1 1001.1 +41.5
15 12.07 штиль 0 4000 м ясно +38.0 +25.6 49 +52 +52 опасность
перегрева
988.6 989.0
18 12.07 ЮВ 1 4000 м ясно +34.5 +26.3 62 +51 +51 опасность
перегрева
992.0 973.3
21 12.07 штиль 0 4000 м ясно +33.0 +26.1 67 +49 +49 опасность
перегрева
992.7 970.7
00 13.07 СВ 1 4000 м 6/4 300 м
[Sc As op]
+31.0 +25.4 72 +45 +45 опасность
перегрева
992.8 973.9
03 13.07 СВ 1 10 км ясно +32.0 +27.9 79 +52 +60 опасность
перегрева
994.5 975.6 +28.1
06 13.07 СВ 1 10 км ясно +36.0 +27.9 63 +56 +81 опасность
перегрева
995.0 976.4
09 13.07 СВ 1 10 км 4/0
[As op]
+39.0 +26.8 50 +55 +70 опасность
перегрева
993.8 994.0
12 13.07 СВ 1 10 км 6/3 1000 м
[Sc As op]
+40.5 +26.2 45 +56 +58 опасность
перегрева
991.8 973.5 +41.5
15 13.07 СВ 1 4000 м 6/4 1110 м
[Sc As op]
+34.0 +25.7 62 +49 +49 опасность
перегрева
992.5 993.0
18 13.07 СВ 1 4000 м 9/5 300 м
[Sc As op]
+34.0 +27.9 71 +55 +55 опасность
перегрева
994.4 1003.7
21 13.07 СВ 1 4000 м ясно +32.0 +27.9 79 +52 +52 опасность
перегрева
995.2 1000.0
00 14.07 СВ 1 4000 м 8/4 300 м
[Sc As op]
+30.0 +27.3 85 +48 +48 опасность
перегрева
995.1 976.2
03 14.07 СВ 1 4000 м дым 4/0
[Ac trans]
+31.0 +27.6 82 +50 +56 опасность
перегрева
995.9 977.0 +29.1
06 14.07 СВ 1 10 км ясно +35.5 +28.1 66 +57 +81 опасность
перегрева
996.2 977.5
09 14.07 СВ 1 10 км ясно +38.5 +27.8 55 +58 +79 опасность
перегрева
994.3 994.0
12 14.07 штиль 0 10 км ясно +41.0 +28.4 50 +62 +68 опасность
перегрева
991.0 972.8 +42.1
15 14.07 штиль 0 4000 м ясно +38.0 +28.7 59 +60 +60 опасность
перегрева
990.5 1000.0
18 14.07 штиль 0 4000 м ясно +35.0 +28.3 68 +56 +56 опасность
перегрева
992.5 1008.8
21 14.07 штиль 0 4000 м ясно +33.5 +28.1 73 +54 +54 опасность
перегрева
993.2 1000.0
00 15.07 ЮВ 1 4000 м 9/4 1000 м
[Sc As op]
+32.0 +27.9 79 +52 +52 опасность
перегрева
993.4 974.5
03 15.07 штиль 0 4000 м дым 6/4 300 м
[Sc As op]
+33.0 +27.6 73 +52 +56 опасность
перегрева
994.3 975.5 +29.1
06 15.07 ЮВ 2 4000 м дым 9/4 1110 м
[Sc As op]
+37.0 +28.3 61 +58 +62 опасность
перегрева
996.1 977.5
09 15.07 штиль 0 10 км ясно +41.0 +28.4 50 +62 +86 опасность
перегрева
993.2 1000.0
12 15.07 штиль 0 10 км ясно +40.0 +28.0 51 +59 +65 опасность
перегрева
991.6 1008.0 +42.1
15 15.07 штиль 0 4000 м 4/0
[As op]
+36.0 +27.9 63 +56 +56 опасность
перегрева
992.2 1000.0
18 15.07 штиль 0 4000 м 6/4 300 м
[Sc As op]
+35.0 +27.6 66 +55 +55 опасность
перегрева
993.5 974.8
21 15.07 штиль 0 4000 м 6/4 300 м
[Sc As op]
+34.0 +27.9 71 +55 +55 опасность
перегрева
993.7 1000.0
00 16.07 СВ 1 4000 м 6/4 300 м
[Sc As op]
+31.5 +24.2 65 +43 +43 опасность
перегрева
993.9 975.0

 

Местоположение метеостанции Dera Ismail Khan (Пакистан): широта 31.82 долгота 70.92 высота над уровнем моря 173 м.

В архиве по умолчанию представлена погода в Dera Ismail Khan за последнюю неделю. Архивные данные за месяц целиком и за предыдущие месяцы, начиная с января 2011 года, Вы можете получить, выбрав интересующий диапазон дат из раскрывающегося списка и нажав кнопку "Ввод!".


*Определитесь, кто Вы:
робот инопланетянин человек

Внимание! Время в таблицах - всемирное. Для получения местного времени необходимо прибавить поправку, которая в Dera Ismail Khan равна 5 ч.

Смотрите также архив погоды в соседних городах и на ближайших метеорологических станциях:

Погода в Mianwali (Пакистан) (99 км)
Погода в Zhob (Пакистан) (147 км)
Погода в Sargodha (Пакистан) (167 км)
Погода в Raifiqui Airbase (Пакистан) (168 км)
Погода в Multan (Пакистан) (187 км)
Погода в Kohat (Пакистан) (200 км)
Погода в Faisal Abad (Пакистан) (211 км)
Погода в Parachinar (Пакистан) (241 км)
Погода в Barkhan (Пакистан) (244 км)
Погода в Peshawar (Пакистан) (252 км)

Пояснения к столбцам:

Ветер - указаны скорость ветра в м/с - средняя за 10 мин, порывы в срок и между сроками (в фигурных скобках) и направление, откуда дует ветер: С - северный, СВ - северо-восточный, В - восточный, ЮВ - юго-восточный, Ю - южный, ЮЗ - юго-западный, З - западный, СЗ - северо-западный.
Видимость - горизонтальная дальность видимости в метрах или километрах. При видимости от 1 до 10 км при отсутствии осадков обычно наблюдается дымка, при ухудшении видимости до 1 км и менее - туман. В сухую погоду видимость может ухудшаться дымом, пылью или мглою.
Явления - указаны атмосферные явления, наблюдавшиеся в срок или в последний час перед сроком; фигурными скобками обозначены явления, наблюдавшиеся между сроками (за 1-3 часа до срока); квадратными скобками обозначены град или гололедные отложения с указанием их диаметра в мм.
Облачность - указаны через наклонную черту общая и нижняя облачность в баллах и высота нижней границы облаков в метрах; квадратными скобками обозначены формы облаков: Ci - перистые, Cs - перисто-слоистые, Cc - перисто-кучевые, Ac - высококучевые, As - высокослоистые, Sc - слоисто-кучевые, Ns - слоисто-дождевые, Cu - кучевые, Cb - кучево-дождевые. Подробнее классификацию облаков см. в Атласе облаков (PDF).
T - Температура воздуха - температура, измеренная на высоте 2 м над землей.
Td - Температура точки росы - температура, при понижении до которой содержащийся в воздухе водяной пар достигнет насыщения.
f - Относительная влажность воздуха - влажноcть воздуха, измеренная на высоте 2 м над землей.
Te - Эффективная температура - температура, которую ощущает одетый по сезону человек в тени. Характеристика душности погоды. При расчете учитывается влияние влажности воздуха и скорости ветра на теплоощущения человека.
Tes - Эффективная температура на солнце - температура, которую ощущает человек, с поправкой на солнечный нагрев. Характеристика знойности погоды. Зависит от высоты солнца над горизонтом, облачности и скорости ветра. Ночью, в пасмурную погоду, а также при ветре 12 м/с и более поправка равна нулю.
P - Атмосферное давление - приведенное к уровню моря атмосферное давление.
Po - Атмосферное давление - измеренное на уровне метеостанции атмосферное давление.
Tmin - Минимальная температура - минимум температуры воздуха на высоте 2 м над землей.
Tmax - Максимальная температура - максимум температуры воздуха на высоте 2 м над землей.
R - Количество осадков - Количество выпавших осадков за период времени, мм. При наведении курсора мыши на число - период времени, за который выпало указанное количество осадков.
R24 - Количество осадков - Количество выпавших осадков за 24 часа, мм.
S - Снежный покров - Высота снежного покрова, см. При наведении курсора мыши на число - состояние снежного покрова и степень покрытия местности в баллах.